Location: Burgberg
(50.1428°N, 11.0671°E)
Time: 19:49:59
(UTC+00:00)

STARLINK-1052 - Pass Details

Date: 26 January 2020
Orbit: 548 x 551 km, 53.0° (Epoch: 21 February)

Event Time Altitude Azimuth Distance (km) Brightness Sun altitude
Exits shadow 04:09:32 29° 145° (SE) 1,014 5.2 -26.9°
Drops below altitude 10° 04:13:16 10° 80° (E) 1,814 7.3 -26.3°
Enters shadow 05:12:18 -65° 246° (WSW) 12,166 10.4 -16.8°
Maximum altitude 05:48:53 85° 337° (NNW) 552 3.6 -11.1°
